Location: Atherton
(17.2661°S, 145.4859°E)
Time: 00:15:13
(UTC+10:00)

Vanguard 1 - Pass Details

Date: 01 July 2025
Orbit: 649 x 3822 km, 34.2° (Epoch: 17 July)

Event Time Altitude Azimuth Distance (km) Brightness Sun altitude
Rises 18:03:29 0° 285° (WNW) 7,954 17.2 -2.6°
Reaches altitude 10° 18:09:24 10° 280° (W) 6,833 16.1 -3.9°
Maximum altitude 18:30:32 55° 206° (SSW) 3,228 12.7 -8.6°
Enters shadow 18:43:02 11° 129° (SE) 4,278 12.7 -11.4°
Drops below altitude 10° 18:43:11 10° 129° (SE) 4,308 - -11.4°
Sets 18:46:00 0° 124° (SE) 4,964 - -12.0°
